Total_Precipitation_Accumulation
0.12 0.10 0.14 0.26 0.33 0.29 0.32 0.37 0.43 0.47 0.56 0.70 0.81 0.85 0.82 0.73 0.57 0.47 0.39 0.29 0.24 0.24 0.30 0.36 0.45 0.49 0.56 0.70 0.91 0.94 0.77 0.57 0.49 0.47 0.43 0.34 0.29 0.29 0.27 0.27 0.26 0.28 0.24 0.26
0.12 0.08 0.09 0.11 0.10 0.10 0.12 0.15 0.21 0.31 0.46 0.54 0.59 0.58 0.53 0.42 0.29 0.25 0.21 0.16 0.13 0.13 0.17 0.17 0.19 0.26 0.38 0.46 0.51 0.49 0.40 0.33 0.31 0.27 0.23 0.21 0.20 0.18 0.15 0.14 0.13 0.18 0.18 0.21
0.22 0.10 0.11 0.09 0.05 0.07 0.13 0.15 0.22 0.37 0.44 0.39 0.37 0.36 0.34 0.25 0.16 0.15 0.11 0.09 0.08 0.08 0.11 0.10 0.09 0.10 0.11 0.16 0.22 0.22 0.15 0.12 0.14 0.17 0.14 0.11 0.11 0.11 0.12 0.12 0.11 0.12 0.14 0.20
0.27 0.23 0.19 0.06 0.03 0.05 0.09 0.14 0.21 0.30 0.30 0.24 0.20 0.17 0.16 0.12 0.09 0.08 0.07 0.05 0.05 0.06 0.07 0.07 0.08 0.09 0.09 0.09 0.12 0.15 0.12 0.08 0.08 0.12 0.13 0.13 0.13 0.14 0.11 0.09 0.09 0.13 0.15 0.21
0.31 0.33 0.16 0.05 0.03 0.04 0.04 0.07 0.08 0.10 0.10 0.08 0.07 0.08 0.08 0.07 0.06 0.06 0.06 0.05 0.06 0.06 0.07 0.07 0.09 0.10 0.08 0.06 0.07 0.09 0.10 0.10 0.09 0.11 0.13 0.12 0.11 0.10 0.09 0.08 0.09 0.12 0.16 0.17
0.29 0.31 0.21 0.08 0.05 0.04 0.04 0.06 0.04 0.04 0.04 0.03 0.03 0.08 0.08 0.06 0.04 0.05 0.06 0.06 0.07 0.09 0.09 0.09 0.10 0.10 0.08 0.07 0.06 0.06 0.08 0.10 0.12 0.14 0.13 0.12 0.13 0.14 0.12 0.10 0.10 0.11 0.13 0.14
0.26 0.30 0.15 0.06 0.06 0.06 0.09 0.08 0.04 0.03 0.03 0.03 0.04 0.06 0.05 0.04 0.05 0.05 0.08 0.09 0.09 0.10 0.10 0.10 0.10 0.10 0.09 0.07 0.06 0.07 0.09 0.11 0.10 0.10 0.10 0.13 0.15 0.18 0.16 0.14 0.12 0.11 0.13 0.12
0.22 0.27 0.13 0.05 0.05 0.07 0.06 0.05 0.03 0.03 0.03 0.03 0.04 0.05 0.04 0.05 0.05 0.06 0.08 0.09 0.09 0.09 0.09 0.11 0.10 0.10 0.08 0.07 0.09 0.09 0.10 0.11 0.10 0.09 0.10 0.13 0.15 0.13 0.11 0.11 0.11 0.10 0.09 0.09
0.18 0.14 0.08 0.07 0.07 0.06 0.05 0.04 0.03 0.02 0.03 0.03 0.03 0.04 0.05 0.05 0.05 0.05 0.07 0.08 0.08 0.09 0.09 0.11 0.12 0.12 0.11 0.10 0.12 0.10 0.08 0.10 0.12 0.13 0.15 0.15 0.15 0.13 0.11 0.10 0.10 0.10 0.10 0.10
0.15 0.09 0.06 0.07 0.07 0.06 0.05 0.04 0.03 0.02 0.02 0.02 0.03 0.04 0.04 0.04 0.04 0.05 0.06 0.06 0.08 0.09 0.11 0.12 0.14 0.15 0.15 0.14 0.12 0.10 0.09 0.10 0.13 0.15 0.18 0.18 0.15 0.13 0.11 0.10 0.11 0.12 0.12 0.12
0.12 0.09 0.07 0.07 0.06 0.04 0.03 0.04 0.04 0.03 0.02 0.03 0.03 0.03 0.04 0.04 0.04 0.05 0.05 0.05 0.07 0.08 0.08 0.10 0.12 0.12 0.12 0.11 0.09 0.08 0.09 0.11 0.13 0.14 0.16 0.17 0.15 0.13 0.12 0.11 0.12 0.13 0.14 0.16
0.13 0.12 0.12 0.09 0.07 0.05 0.04 0.07 0.05 0.05 0.05 0.04 0.04 0.04 0.05 0.06 0.07 0.06 0.06 0.05 0.05 0.07 0.08 0.09 0.09 0.09 0.09 0.10 0.10 0.09 0.08 0.10 0.12 0.13 0.13 0.14 0.16 0.14 0.14 0.14 0.15 0.15 0.14 0.14
0.14 0.12 0.12 0.10 0.07 0.06 0.07 0.07 0.04 0.05 0.06 0.04 0.03 0.04 0.04 0.06 0.07 0.07 0.08 0.09 0.10 0.10 0.11 0.10 0.10 0.12 0.10 0.11 0.10 0.10 0.10 0.11 0.12 0.11 0.10 0.10 0.13 0.16 0.17 0.17 0.16 0.14 0.15 0.15
0.09 0.09 0.10 0.10 0.08 0.07 0.07 0.07 0.05 0.04 0.04 0.04 0.04 0.05 0.06 0.07 0.07 0.08 0.08 0.09 0.11 0.11 0.11 0.11 0.13 0.14 0.12 0.13 0.13 0.14 0.13 0.13 0.14 0.12 0.11 0.10 0.12 0.13 0.15 0.17 0.19 0.17 0.15 0.15
0.07 0.07 0.09 0.09 0.09 0.08 0.06 0.06 0.05 0.04 0.03 0.03 0.03 0.05 0.07 0.08 0.07 0.06 0.05 0.06 0.07 0.08 0.08 0.08 0.09 0.10 0.10 0.12 0.14 0.16 0.16 0.15 0.15 0.15 0.13 0.11 0.11 0.12 0.12 0.13 0.15 0.17 0.18 0.17
0.06 0.05 0.05 0.07 0.07 0.07 0.06 0.06 0.05 0.04 0.03 0.03 0.03 0.05 0.08 0.09 0.07 0.06 0.06 0.07 0.07 0.09 0.09 0.09 0.09 0.09 0.11 0.11 0.10 0.11 0.13 0.17 0.16 0.15 0.13 0.11 0.12 0.12 0.12 0.13 0.15 0.17 0.18 0.20
0.08 0.07 0.06 0.06 0.06 0.06 0.06 0.06 0.05 0.04 0.03 0.03 0.04 0.07 0.11 0.12 0.10 0.08 0.08 0.09 0.10 0.11 0.11 0.09 0.09 0.11 0.12 0.11 0.09 0.09 0.11 0.15 0.14 0.12 0.11 0.11 0.13 0.15 0.16 0.16 0.16 0.17 0.17 0.18
0.07 0.08 0.06 0.06 0.06 0.05 0.06 0.05 0.05 0.05 0.05 0.04 0.05 0.08 0.16 0.18 0.13 0.09 0.08 0.11 0.13 0.13 0.13 0.12 0.11 0.13 0.12 0.10 0.09 0.09 0.10 0.10 0.11 0.13 0.13 0.13 0.14 0.17 0.19 0.18 0.17 0.16 0.15 0.16
0.05 0.07 0.07 0.06 0.06 0.05 0.07 0.07 0.06 0.05 0.05 0.05 0.07 0.11 0.18 0.17 0.13 0.10 0.09 0.11 0.12 0.13 0.13 0.13 0.16 0.16 0.15 0.12 0.10 0.08 0.09 0.08 0.08 0.10 0.13 0.15 0.16 0.16 0.16 0.16 0.16 0.15 0.16 0.16
0.07 0.07 0.07 0.07 0.07 0.06 0.09 0.09 0.07 0.06 0.06 0.07 0.10 0.13 0.16 0.15 0.13 0.11 0.10 0.10 0.10 0.11 0.12 0.12 0.14 0.14 0.13 0.13 0.13 0.10 0.09 0.09 0.08 0.09 0.11 0.14 0.15 0.15 0.15 0.14 0.15 0.16 0.16 0.16
0.09 0.10 0.08 0.08 0.08 0.08 0.10 0.10 0.08 0.07 0.07 0.09 0.13 0.16 0.17 0.17 0.16 0.15 0.14 0.13 0.11 0.11 0.11 0.13 0.13 0.12 0.12 0.15 0.15 0.14 0.13 0.12 0.11 0.12 0.13 0.14 0.16 0.15 0.16 0.16 0.15 0.16 0.18 0.18
0.10 0.12 0.10 0.09 0.10 0.10 0.11 0.11 0.09 0.08 0.07 0.08 0.12 0.14 0.15 0.18 0.19 0.16 0.14 0.13 0.13 0.13 0.11 0.11 0.12 0.14 0.14 0.15 0.14 0.15 0.16 0.16 0.15 0.14 0.16 0.17 0.18 0.19 0.19 0.19 0.19 0.19 0.19 0.20
0.09 0.11 0.10 0.09 0.09 0.10 0.11 0.11 0.10 0.09 0.09 0.09 0.12 0.11 0.11 0.14 0.15 0.15 0.15 0.13 0.13 0.15 0.13 0.12 0.14 0.15 0.16 0.13 0.12 0.14 0.16 0.17 0.18 0.18 0.18 0.18 0.20 0.20 0.20 0.20 0.21 0.22 0.21 0.21
0.10 0.10 0.10 0.10 0.10 0.11 0.12 0.11 0.09 0.10 0.11 0.12 0.12 0.11 0.11 0.12 0.13 0.14 0.14 0.16 0.17 0.17 0.16 0.16 0.16 0.16 0.15 0.13 0.15 0.17 0.18 0.19 0.20 0.21 0.21 0.20 0.19 0.20 0.21 0.21 0.22 0.24 0.24 0.23
0.11 0.12 0.11 0.12 0.13 0.15 0.15 0.12 0.10 0.11 0.13 0.14 0.14 0.13 0.13 0.13 0.15 0.16 0.17 0.17 0.18 0.19 0.19 0.19 0.19 0.20 0.17 0.16 0.18 0.19 0.19 0.21 0.22 0.24 0.23 0.24 0.25 0.26 0.26 0.27 0.26 0.25 0.25 0.25
0.12 0.12 0.12 0.13 0.15 0.18 0.17 0.15 0.14 0.14 0.16 0.18 0.17 0.16 0.14 0.13 0.13 0.13 0.15 0.18 0.19 0.20 0.21 0.21 0.21 0.20 0.19 0.20 0.21 0.22 0.22 0.23 0.25 0.26 0.28 0.30 0.31 0.34 0.35 0.35 0.34 0.32 0.30 0.30
0.14 0.15 0.16 0.17 0.17 0.19 0.18 0.18 0.18 0.18 0.20 0.22 0.22 0.20 0.18 0.17 0.17 0.16 0.16 0.18 0.19 0.20 0.21 0.22 0.23 0.23 0.25 0.26 0.26 0.26 0.26 0.27 0.29 0.30 0.32 0.35 0.36 0.37 0.39 0.40 0.40 0.39 0.38 0.39